User: anonymous   Login
Location: �terpigny
(49.8910°N, 2.9249°E)
Time: 00:07:39
(UTC+00:00)
Language:

CZ-4C R/B - Orbit

View from above orbital plane
View from above orbital plane
View from above satellite
View from above satellite

Ground track
Ground track

The orbit data is extracted from the following two-line orbital elements,

1 32290U 07055B   22026.56584717  .00006600  00000-0  15027-3 0  9998
2 32290  97.6820 221.4124 0054375 230.5091 129.1340 15.41761891790605
Epoch (UTC): 26 January 2022 13:34:49
Eccentricity: 0.0054375
inclination: 97.6820°
perigee height: 404 km
apogee height: 478 km
right ascension of ascending node: 221.4124°
argument of perigee: 230.5091°
revolutions per day: 15.41761891
mean anomaly at epoch: 129.1340°
orbit number at epoch: 79060

The dashed part of the orbit path shows where the satellite is in the earth's shadow,  

DLR